Location: Newark
(49.8348°N, 24.0280°E)
Time: 03:30:00
(UTC+00:00)

Transit 2A - Pass Details

Date: 27 January 2020
Orbit: 600 x 959 km, 66.7° (Epoch: 17 February)

Event Time Altitude Azimuth Distance (km) Brightness Sun altitude
Rises 18:26:35 0° 222° (SW) 2,875 9.4 -31.6°
Reaches altitude 10° 18:28:52 10° 225° (SW) 1,954 8.5 -32.0°
Enters shadow 18:29:48 16° 227° (SW) 1,584 8.0 -32.1°
Maximum altitude 18:33:11 68° 309° (NW) 652 - -32.7°
Drops below altitude 10° 18:37:33 10° 33° (NNE) 1,968 - -33.4°
Sets 18:39:51 0° 36° (NE) 2,898 - -33.7°
